(198101) = 2004 SJ44

Discovered at Socorro on 2004-09-18 by LINEAR.

Orbit

Orbit type: Main Belt

Note: WebGL enabled browser required.

epoch2023-09-13.0
epoch JD2460200.5
perihelion date2022-12-12.44485
perihelion JD2459925.94485
argument of perihelion (°)94.62698
ascending node (°)215.69919
inclination (°)2.40735
eccentricity0.1993524
perihelion distance (AU)1.9271690
Tisserand w.r.t. Jupiter3.5
ΔV w.r.t. Earth (km/sec)8.7
semimajor axis (AU)2.4070127
mean anomaly (°)72.46293
mean daily motion (°/day)0.26392850
aphelion distance (AU)2.887
period (years)3.73
P-vector [x]0.64662483
P-vector [y]-0.71546161
P-vector [z]-0.26455815
Q-vector [x]0.76241430
Q-vector [y]0.59503242
Q-vector [z]0.25428500
absolute magnitude17.13
phase slope0.15
uncertainty0
referenceMPEC 2024-A65
observations used469
oppositions18
arc length (days)11577
first opposition used1992
last opposition used2024
residual rms (arc-secs)0.73
perturbers coarse indicatorM-v
perturbers precise indicator003Ek
first observation date used1992-04-24.0
last observation date used2024-01-04.0
computer nameMPCLINUX
JD of orbit computation2456731.523831
perihelion JD uncertainty (days)8.6783E-05
argument of perihelion uncertainty (°)1.3706E-04
ascending node uncertainty (°)1.3551E-04
inclination uncertainty (°)7.9751E-06
eccentricity uncertainty 4.8946E-08
perihelion distance uncertainty (AU)1.1855E-07
Minimum Orbit Intersection Distances (in AU)
for orbit epoch: 2460200.5, reference: E2024-A65
Mercury1.4981
Venus1.20362
Earth0.91401
Mars0.53947
Jupiter2.37429
Saturn6.23688
Uranus15.626
Neptune27.3095

Observations

482 total observations over interval: 1992 04 24.25736 – 2024 01 04.422620
These data are available for download (format description).

Date (UT) J2000 RA J2000 Dec Magn Location Ref
1992 04 24.25736 14 07 22.54 -13 01 56.7   691 – Steward Observatory, Kitt Peak-Spacewatch MPS 139345
1992 04 24.27795 14 07 21.41 -13 01 49.7 20.9 V 691 – Steward Observatory, Kitt Peak-Spacewatch MPS 139345
1992 04 24.29868 14 07 20.13 -13 01 42.4   691 – Steward Observatory, Kitt Peak-Spacewatch MPS 139345
2000 08 29.30031 21 19 23.05 -10 52 16.2 19.5   704 – Lincoln Laboratory ETS, New Mexico MPS 139345
2000 08 29.31370 21 19 22.59 -10 52 20.5 19.3   704 – Lincoln Laboratory ETS, New Mexico MPS 139345
2000 08 29.32717 21 19 21.91 -10 52 23.9 19.1   704 – Lincoln Laboratory ETS, New Mexico MPS 139345
2003 03 26.30898 12 36 03.75 -05 50 44.4 20.7 V 691 – Steward Observatory, Kitt Peak-Spacewatch MPS 139345
2003 03 26.33904 12 36 02.07 -05 50 32.2 20.5 V 691 – Steward Observatory, Kitt Peak-Spacewatch MPS 139345
2003 03 26.36652 12 36 00.49 -05 50 21.3 20.8 V 691 – Steward Observatory, Kitt Peak-Spacewatch MPS 139345
2004 09 10.30784 01 28 18.19 +11 22 44.4 20.6   704 – Lincoln Laboratory ETS, New Mexico MPS 117691
2004 09 10.31930 01 28 17.80 +11 22 41.4 20.8   704 – Lincoln Laboratory ETS, New Mexico MPS 117691
2004 09 10.33081 01 28 17.45 +11 22 41.2 20.6   704 – Lincoln Laboratory ETS, New Mexico MPS 117691
2004 09 10.34235 01 28 17.12 +11 22 38.8 20.2   704 – Lincoln Laboratory ETS, New Mexico MPS 117691
2004 09 18.30309 01 24 00.33 +10 49 57.1 19.9   704 – Lincoln Laboratory ETS, New Mexico MPS 114668
2004 09 18.30950 01 24 00.04 +10 49 54.4 19.7   704 – Lincoln Laboratory ETS, New Mexico MPS 114668
2004 09 18.31565 01 23 59.83 +10 49 53.4 20.2   704 – Lincoln Laboratory ETS, New Mexico MPS 114668
2004 09 18.32139 01 23 59.59 +10 49 52.9 20.5   704 – Lincoln Laboratory ETS, New Mexico MPS 114668
2004 09 18.32818 01 23 59.22 +10 49 50.5 20.8   704 – Lincoln Laboratory ETS, New Mexico MPS 114668
2004 09 18.33328 01 23 59.06 +10 49 48.0 19.8   704 – Lincoln Laboratory ETS, New Mexico MPS 114668
2004 09 18.34078 01 23 58.73 +10 49 45.7 20.3   704 – Lincoln Laboratory ETS, New Mexico MPS 114668
2004 09 18.34517 01 23 58.56 +10 49 44.8 20.0   704 – Lincoln Laboratory ETS, New Mexico MPS 114668
2004 09 18.35316 01 23 58.19 +10 49 41.8 19.9   704 – Lincoln Laboratory ETS, New Mexico MPS 114668
2004 09 22.30012 01 21 13.74 +10 29 00.6 19.5   704 – Lincoln Laboratory ETS, New Mexico MPS 114668
2004 09 22.31355 01 21 13.11 +10 28 55.0 19.8   704 – Lincoln Laboratory ETS, New Mexico MPS 114668
2004 09 22.32704 01 21 12.56 +10 28 50.6 19.4   704 – Lincoln Laboratory ETS, New Mexico MPS 114668
2004 10 07.18747 01 08 35.49 +08 52 04.8 19.1 R 699 – Lowell Observatory-LONEOS MPS 117691
2004 10 07.20692 01 08 34.33 +08 51 56.8   699 – Lowell Observatory-LONEOS MPS 117691
2004 10 07.22638 01 08 33.15 +08 51 49.4   699 – Lowell Observatory-LONEOS MPS 117691
2004 10 07.24586 01 08 32.15 +08 51 40.5   699 – Lowell Observatory-LONEOS MPS 117691
2004 10 07.27301 01 08 30.51 +08 51 29.2 19.4 V 691 – Steward Observatory, Kitt Peak-Spacewatch MPS 117691
2004 10 07.30072 01 08 28.93 +08 51 17.4 19.4 V 691 – Steward Observatory, Kitt Peak-Spacewatch MPS 117691
2004 10 07.32710 01 08 27.41 +08 51 06.1 19.4 V 691 – Steward Observatory, Kitt Peak-Spacewatch MPS 117691
2004 10 09.25737 01 06 41.89 +08 37 15.0 19.7   704 – Lincoln Laboratory ETS, New Mexico MPS 117691
2004 10 09.27926 01 06 40.65 +08 37 05.5 20.5   704 – Lincoln Laboratory ETS, New Mexico MPS 117691
2004 10 09.29020 01 06 40.15 +08 37 01.3 20.6   704 – Lincoln Laboratory ETS, New Mexico MPS 117691
2004 10 11.26989 01 04 52.18 +08 22 44.4 19.4 V 691 – Steward Observatory, Kitt Peak-Spacewatch MPS 117691
2004 10 11.29721 01 04 50.61 +08 22 32.7 19.3 V 691 – Steward Observatory, Kitt Peak-Spacewatch MPS 117691
2004 10 11.32880 01 04 48.83 +08 22 19.0 19.4 V 691 – Steward Observatory, Kitt Peak-Spacewatch MPS 117691
2004 10 20.20678 00 57 08.56 +07 19 39.0 19.9   704 – Lincoln Laboratory ETS, New Mexico MPS 117691
2004 10 20.21619 00 57 08.09 +07 19 35.2 19.8   704 – Lincoln Laboratory ETS, New Mexico MPS 117691
2004 10 20.23500 00 57 07.14 +07 19 26.0 20.0   704 – Lincoln Laboratory ETS, New Mexico MPS 117691
2004 11 05.07769 00 47 03.13 +05 48 56.7 20.1 V 691 – Steward Observatory, Kitt Peak-Spacewatch MPS 118494
2004 11 05.09467 00 47 02.66 +05 48 52.2 20.0 V 691 – Steward Observatory, Kitt Peak-Spacewatch MPS 118494
2004 11 05.11132 00 47 02.20 +05 48 47.8 19.9 V 691 – Steward Observatory, Kitt Peak-Spacewatch MPS 118494
2006 01 09.37944 08 41 43.57 +14 33 59.9 21.5 V 691 – Steward Observatory, Kitt Peak-Spacewatch MPS 158981
2006 01 09.39676 08 41 42.63 +14 34 03.1 21.8 V 691 – Steward Observatory, Kitt Peak-Spacewatch MPS 158981
2006 01 09.41408 08 41 41.73 +14 34 04.4 20.6 V 691 – Steward Observatory, Kitt Peak-Spacewatch MPS 158981
2007 04 11.34855 15 00 26.29 -17 01 45.3 20.6 V 691 – Steward Observatory, Kitt Peak-Spacewatch MPS 206173
2007 04 11.36616 15 00 25.59 -17 01 41.1 20.8 V 691 – Steward Observatory, Kitt Peak-Spacewatch MPS 206173
2007 04 11.38376 15 00 24.93 -17 01 37.3 20.6 V 691 – Steward Observatory, Kitt Peak-Spacewatch MPS 206173
2007 04 23.34583 14 51 26.84 -16 07 46.4   691 – Steward Observatory, Kitt Peak-Spacewatch MPS 208072
2007 04 23.36488 14 51 25.78 -16 07 40.1   691 – Steward Observatory, Kitt Peak-Spacewatch MPS 208072
2007 04 23.38445 14 51 24.73 -16 07 34.3   691 – Steward Observatory, Kitt Peak-Spacewatch MPS 208072
2007 05 09.28618 14 36 23.43 -14 37 33.5 19.4 V G96 – Mt. Lemmon Survey MPS 208922
2007 05 09.29425 14 36 22.93 -14 37 30.6 19.6 V G96 – Mt. Lemmon Survey MPS 208922
2007 05 09.30245 14 36 22.46 -14 37 27.6 19.5 V G96 – Mt. Lemmon Survey MPS 208922
2007 05 09.31053 14 36 21.96 -14 37 24.7 19.5 V G96 – Mt. Lemmon Survey MPS 208922
2008 09 07.39998 04 03 42.08 +20 39 56.3 20.2 V G96 – Mt. Lemmon Survey MPS 255847
2008 09 07.40823 04 03 42.40 +20 39 56.7 20.9 V G96 – Mt. Lemmon Survey MPS 255847
2008 09 07.41656 04 03 42.76 +20 39 57.4 20.8 V G96 – Mt. Lemmon Survey MPS 255847
2008 09 07.42492 04 03 43.12 +20 39 57.5 20.8 V G96 – Mt. Lemmon Survey MPS 255847
2008 09 22.39692 04 11 27.49 +20 45 37.8 19.8 V G96 – Mt. Lemmon Survey MPS 256676
2008 09 22.40858 04 11 27.70 +20 45 37.5 20.1 V G96 – Mt. Lemmon Survey MPS 256676
2008 09 22.42034 04 11 27.88 +20 45 37.0 20.6 V G96 – Mt. Lemmon Survey MPS 256676
2008 09 22.43210 04 11 28.06 +20 45 36.9 20.4 V G96 – Mt. Lemmon Survey MPS 256676
2008 10 09.41100 04 11 44.44 +20 26 39.1 19.9 V G96 – Mt. Lemmon Survey MPS 259240
2008 10 09.41654 04 11 44.34 +20 26 38.4 19.9 V G96 – Mt. Lemmon Survey MPS 259240
2008 10 09.42216 04 11 44.23 +20 26 38.0 20.3 V G96 – Mt. Lemmon Survey MPS 259240
2008 10 09.42773 04 11 44.12 +20 26 37.2 20.3 V G96 – Mt. Lemmon Survey MPS 259240
2008 10 23.41858 04 04 49.33 +19 50 35.4 20.2 V G96 – Mt. Lemmon Survey MPS 260583
2008 10 23.42453 04 04 49.08 +19 50 34.0 20.1 V G96 – Mt. Lemmon Survey MPS 260583
2008 10 23.43050 04 04 48.79 +19 50 33.1 20.2 V G96 – Mt. Lemmon Survey MPS 260583
2008 10 23.43646 04 04 48.54 +19 50 31.7 20.1 V G96 – Mt. Lemmon Survey MPS 260583
2008 11 06.34584 03 52 38.31 +18 58 07.4 20.2 V G96 – Mt. Lemmon Survey MPS 263188
2008 11 06.35130 03 52 37.99 +18 58 06.1 19.7 V G96 – Mt. Lemmon Survey MPS 263188
2008 11 06.35676 03 52 37.63 +18 58 04.7 19.9 V G96 – Mt. Lemmon Survey MPS 263188
2008 11 06.36227 03 52 37.27 +18 58 03.2 20.0 V G96 – Mt. Lemmon Survey MPS 263188
2008 11 18.24486 03 40 06.56 +18 05 22.7 19.7 V 703 – Catalina Sky Survey MPS 266330
2008 11 18.25106 03 40 06.27 +18 05 21.1 19.9 V 703 – Catalina Sky Survey MPS 266330
2008 11 18.25738 03 40 05.73 +18 05 20.5 21.1 V 703 – Catalina Sky Survey MPS 266330
2008 11 18.26358 03 40 05.37 +18 05 18.7 20.1 V 703 – Catalina Sky Survey MPS 266330
2008 11 19.27696 03 39 00.54 +18 00 43.1 19.9 V G96 – Mt. Lemmon Survey MPS 266330
2008 11 19.28255 03 39 00.18 +18 00 41.5 20.0 V G96 – Mt. Lemmon Survey MPS 266330
2008 11 19.28812 03 38 59.78 +18 00 39.7 19.9 V G96 – Mt. Lemmon Survey MPS 266330
2008 11 19.29367 03 38 59.42 +18 00 38.3 19.6 V G96 – Mt. Lemmon Survey MPS 266330
2008 12 05.22765 03 23 28.35 +16 53 42.6 20.2 V G96 – Mt. Lemmon Survey MPS 268744
